Погода в Рузаевке

Погода в Рузаевке : погода сейчас, прогноз погоды и архив. Всё, что Вы хотите узнать о погоде в Рузаевке!

Поиск расширенной информации на нашем сайте:

Другие новости

Новости СМИ2

Главная страница сайта

Новости сайта

03.07.2017

Напоминаем, что на нашем специализированном сайте Метеоцентр.Азия вы можете получить высокодетализированные автоматические прогнозы погоды по пунктам России, СНГ и мира в авиационном формате (включающие направление и скорость ветра, видимость, явления погоды, количество и форму облачности, нижнюю и верхнюю границу облачности).

Рекомендуем: Самоделкин замена и ремонт кран.

Погода в Рузаевке - сегодня

Время (UTC), дата Ветер
(°,м/с) 
Видим.   Явления Облачность Т
(°С)
Тd
(°С)
f(%) Тe
(°С)
Pmin
(гПа)
dP
(гПа)
Po
(мм)
O2
(г/м3)
Тmin Tmax R s Состояние
почвы
18 13.12.17 тихо ()   н/о    ясно 
-18.2 -20.2 84 -18  1047.5  0.6  762  331    -14.3       
21 13.12.17 110 (В) н/о    ясно 
-18.3 -20.9 80 -24  1047.1  -0.4  762  331           
00 14.12.17 160 (Ю) н/о    ясно 
-17 -19.3 82 -19  1046.7  -0.2  762  329           
03 14.12.17 130 (ЮВ) н/о    ясно 
-19.5 -22.5 77 -20  1048  0.9  762  333        равномерный
сухой снег
100% 
06 14.12.17 140 (ЮВ) 20000 м    4/0 верхняя 
[Ci sp]
-17.5 -21 74 -24  1048.6  0.8  763  330  -21.4         
09 14.12.17 130 (ЮВ) 20000 м    ясно 
-14.7 -19 70 -18  1047.4  -0.8  762  326           
12 14.12.17 140 (ЮВ) н/о    6/0 средняя, верхняя 
[Ac trans|Ci sp]
-17.9 -21.4 74 -23  1048.4  0.6  763  331           
15 14.12.17 150 (ЮВ) н/о    3/0 верхняя 
[Ci sp]
-18.5 -22.5 71 -21  1048.5  763  331    -14.2       
18 14.12.17 150 (ЮВ) н/о    ясно 
-18.6 -22.2 73 -19  1048  -0.5  763  331    -14.2       
21 14.12.17 160 (Ю) н/о    3/0 верхняя 
[Ci fib]
-18.2 -22.2 71 -21  1047.9  763  331           
00 15.12.17 160 (Ю) н/о    ясно 
-18.8 -22.4 73 -19  1047.7  -0.3  762  332           
03 15.12.17 140 (ЮВ) н/о    ясно 
-18 -21.7 73 -21  1047.6  762  330        равномерный
сухой снег
100% 
06 15.12.17 180 (Ю) 20000 м    4/0 верхняя 
[Ci fib]
-15.2 -20.3 65 -20  1048.1  0.8  763  327  -19.3         
09 15.12.17 160 (Ю) 20000 м    6/0 верхняя 
[Ci fib]
-11.2 -17 62 -14  1046.9  -0.7  762  322           
12 15.12.17 210 (ЮЗ) н/о    4/0 верхняя 
[Ci fib]
-15.4 -19.3 72 -15  1047.8  0.4  763  327           
15 15.12.17 220 (ЮЗ) н/о    ясно 
-17.7 -21.2 74 -20  1048.1  763  330    -10.7       
18 15.12.17 310 (СЗ) н/о    ясно 
-23 -26.2 75 -23  1048.2  -0.5  762  337    -10.7       
21 15.12.17 030 (СВ) н/о    ясно 
-24.4 -27.9 73 -25  1047.7  -0.7  762  339           
00 16.12.17 020 (С) н/о    ясно 
-24 -27.5 73 -29  1047.4  -0.2  762  338           
03 16.12.17 020 (С) н/о    ясно 
-23.7 -27 74 -24  1047.5  0.1  762  338        равномерный
сухой снег
100% 
06 16.12.17 тихо ()   20000 м    ясно 
-19.6 -22.9 75 -20  1046.7  -0.3  761  332  -24.9         
09 16.12.17 тихо ()   20000 м    3/0 средняя 
[Ac trans]
-7.5 -15.9 51 -8  1044.6  -0.6  761  317           
12 16.12.17 тихо ()   н/о    ясно 
-13.5 -18.3 67 -14  1045.2  -0.1  761  324           
15 16.12.17 тихо ()   н/о    ясно 
-23.3 -26.6 74 -23  1046.9  0.5  761  337    -7       
18 16.12.17 030 (СВ) н/о    ясно 
-23.8 -27.3 73 -24  1046.9  -0.1  761  338    -7       
Время (UTC), дата Ветер
(°,м/с) 
Видим.   Явления Облачность Т
(°С)
Тd
(°С)
f(%) Тe
(°С)
Pmin
(гПа)
dP
(гПа)
Po
(мм)
O2
(г/м3)
Тmin Tmax R s Состояние
почвы

Для получения пояснительной информации подведите курсор к названию столбца.

ПОГОДА в Рузаевке - архив

Всё, что Вы хотите узнать о погоде в Рузаевке - удобно и подробно!

Выберите нужную дату (начиная с 1 января 2015* года) и нажмите кнопку "Найти".
Будут отображены архивные сводки погоды по пункту Рузаевка, начиная с указанной даты.


Отображать данные в формате CSV (для использования в таблицах Excel)


Внимание! Наш архив погоды предназначен исключительно для личного некоммерческого использования в познавательных целях. Если Вам необходимы официальные справки о состоянии погоды (для производственных, юридических, коммерческих и т.п. целей), обращайтесь в органы Росгидромета.

*Примечание: данная дата относится к архиву по метеостанциям СССР (Россия, СНГ, Балтия).
Архив по метеостанциям Зарубежной Европы и Азии (кроме Китая) хранится 10 дней, по другим регионам земного шара (Китай, Африка, Америка, Австралия, Океания) - 1 день.

Рузаевка - район местоположения метеостанции


Название, широта, долгота, высота метеостанции:
Рузаевка 52.8°ш. 67°д. 227 м над ур. моря [Казахстан]

Дополнительная информация

В oтличие oт бoльшинства пoгoдных сайтoв мы публикуем пoдрoбную метеoинфoрмацию в детальнoм прoфессиoнальнoм фoрмате.

Характеристики температуры и влажнoсти вoздуха измеряются на высoте 2 м в тени вдали oт зданий и деревьев.
Скoрoсть ветра измеряется на высoте 10 м (на урoвне рoста челoвека скoрoсть ветра ниже в 1.5-2 раза). Если метеoстанция нахoдится в гoрoде или в лесу, тo скoрoсть ветра занижена на 2-4 м/с пo сравнению с oткрытым местoм. Скoрoсть ветра над акватoриями крупных рек и oзёр, а также на вершинах хoлмoв на 2-5 м/с выше, чем в oбычных услoвиях.
Атмoсфернoе давление в разных тoчках местнoсти мoжет значительнo oтличаться oт давления на метеoстанции, в зависимoсти oт услoвий рельефа (при пoдъёме на 10 м давление пoнижается примернo на 1 мм рт.ст.).